Temp
15 16 16 16 16 16 14 15 15 17 16 16 16 15 14 13 12 12 12 11 11 11
15 14 14 14 15 16 14 15 16 16 15 14 14 13 12 11 11 11 11 10 10 10
15 14 13 13 13 14 14 14 14 13 13 12 11 11 11 11 11 10 10 10 10 10
13 13 13 13 12 14 13 12 12 12 12 12 11 10 10 10 9 9 9 9 10 10
13 13 12 13 13 13 12 12 12 12 11 10 10 9 8 8 8 8 8 9 8 8
12 12 12 12 12 12 12 11 11 10 10 9 8 8 7 7 7 7 7 7 8 7
11 12 11 11 11 10 10 10 9 9 8 7 7 6 6 6 6 6 6 7 7 6
11 10 10 10 10 9 9 8 8 7 6 6 6 5 5 5 5 5 5 5 5 5
10 9 9 9 9 8 8 7 6 6 5 5 5 5 4 4 4 3 3 3 3 4
9 9 9 8 8 7 7 6 6 5 4 4 4 4 3 3 3 3 3 3 2 2
9 9 8 7 7 6 6 5 5 4 4 3 3 3 2 3 2 2 2 2 2 2
9 8 8 7 6 6 5 4 4 3 4 3 2 2 2 2 2 2 1 1 1 1
7 8 8 7 6 5 4 4 3 3 3 2 2 2 1 2 1 1 1 1 1 0
7 8 8 7 6 5 4 3 3 3 2 2 2 1 1 0 1 1 0 -0 0 0
Height
781 782 782 785 789 787 797 798 797 801 805 807 810 809 811 812 812 812 810 811 811 811
780 780 781 785 786 787 794 795 796 797 801 804 804 804 806 808 808 808 807 807 808 807
778 779 782 784 786 789 793 793 794 797 799 800 802 802 803 803 804 805 804 804 805 804
780 781 781 783 786 786 790 793 793 795 797 799 800 801 801 800 800 800 801 802 801 801
781 782 783 782 785 786 788 791 793 794 795 798 797 798 800 797 796 797 799 800 798 796
778 780 781 782 783 785 786 789 790 790 793 795 795 797 797 795 794 795 795 797 796 795
776 777 780 781 782 783 784 786 788 790 791 793 793 794 792 794 793 793 794 792 793 793
774 775 777 778 780 781 783 784 786 787 789 789 790 791 791 792 790 792 791 790 790 791
770 772 774 775 775 778 780 781 783 784 785 787 788 789 789 788 789 789 789 789 789 790
765 767 769 771 772 774 776 778 780 781 782 784 785 786 787 787 786 786 787 788 788 788
758 760 764 766 768 770 774 776 777 777 779 780 782 783 784 784 784 785 786 786 787 788
752 756 759 761 764 767 769 771 773 776 777 778 779 780 781 782 783 784 785 786 787 787
748 751 754 757 761 763 766 768 771 773 775 776 777 778 779 780 781 782 783 784 785 786
744 746 749 754 757 760 763 765 768 770 771 773 774 775 777 777 778 779 781 782 783 784
Wind_Speed
18 22 23 25 25 18 21 19 18 16 15 14 14 13 13 14 14 13 12 13 14 15
13 12 14 16 17 19 23 19 16 17 17 15 13 11 11 12 13 13 13 13 13 13
10 11 12 14 17 18 17 16 16 15 13 10 10 10 12 13 13 13 12 11 12 12
9 9 11 13 13 16 15 14 14 10 9 10 11 12 14 13 12 13 14 14 14 13
12 12 12 13 13 12 12 11 10 9 10 12 12 12 13 12 11 13 15 16 13 12
14 13 13 13 13 13 13 12 10 9 10 11 11 12 11 10 10 12 13 15 14 13
16 16 15 14 13 12 11 11 10 10 10 10 10 10 9 10 10 10 11 12 12 11
16 16 15 15 14 13 12 10 9 9 10 10 10 10 10 11 10 10 10 8 8 7
19 18 18 17 15 14 13 11 11 10 10 10 10 9 9 9 10 10 9 8 7 6
20 21 20 17 16 16 14 13 12 11 10 10 9 8 8 7 7 9 9 9 8 7
24 23 21 19 19 18 16 14 12 11 10 9 8 7 5 7 6 7 8 8 8 8
26 26 24 24 22 19 16 13 11 12 11 11 10 7 7 7 7 7 9 9 9 9
23 26 26 26 23 20 17 13 10 14 12 13 12 9 9 8 10 11 11 10 10 10
19 24 26 24 22 20 17 14 14 15 15 15 14 12 10 10 11 12 12 13 12 10
Wind_Direction
261 249 241 230 219 206 218 213 201 223 235 233 244 259 265 267 268 267 265 265 264 268
261 254 234 220 217 215 211 212 213 210 220 233 243 251 260 268 272 270 274 276 273 272
252 239 225 215 206 205 212 204 204 211 226 241 258 267 265 270 276 276 275 276 279 274
243 225 210 201 205 198 207 214 211 224 246 261 267 271 273 272 273 267 274 268 265 269
238 234 228 213 220 221 213 219 227 243 260 267 273 275 275 281 279 274 264 270 267 253
237 231 226 224 217 211 212 223 239 248 259 270 271 268 273 282 283 280 270 261 264 258
241 233 229 222 221 223 225 231 240 249 256 261 260 267 277 279 278 278 271 268 263 246
242 237 231 226 225 224 227 233 239 247 255 260 262 267 275 274 274 267 263 256 249 240
241 233 226 223 220 220 222 226 235 246 252 253 258 266 272 275 265 256 248 238 228 225
234 228 223 220 217 217 220 227 238 243 241 246 254 262 267 256 257 240 235 228 207 188
234 226 223 219 218 218 222 231 239 237 233 233 242 246 256 235 253 237 230 218 203 200
238 227 221 220 219 221 222 227 245 233 233 239 240 231 234 249 242 229 220 214 214 217
250 231 226 226 222 222 222 229 237 226 233 236 232 226 231 250 231 228 226 224 226 232
255 235 232 228 223 221 219 220 226 227 228 229 229 230 227 232 226 222 222 223 221 217